| time (UTC) | temp F | wind direction | speed MPH | gust MPH | rain 1hr in | rain 24hr in | rain mn in | humidity % | barometer mb |
| 20260903005321 | 94 | 360 | 1.0 | 3.0 | 0.00 | 0.00 | 0.00 | 57 | 1009.7 |
| 20260903004814 | 95 | 360 | 2.0 | 4.0 | 0.00 | 0.00 | 0.00 | 55 | 1009.8 |
| 20260903004315 | 95 | 360 | 2.0 | 4.0 | 0.00 | 0.00 | 0.00 | 54 | 1009.7 |
| 20260903003814 | 96 | 360 | 2.0 | 4.0 | 0.00 | 0.00 | 0.00 | 54 | 1009.7 |
| 20260903003314 | 96 | 360 | 2.0 | 4.0 | 0.00 | 0.00 | 0.00 | 54 | 1009.8 |
| 20260903002815 | 96 | 360 | 3.0 | 5.0 | 0.00 | 0.00 | 0.00 | 53 | 1009.7 |
| 20260903002316 | 96 | 360 | 2.0 | 6.0 | 0.00 | 0.00 | 0.00 | 52 | 1009.7 |
| 20260903001817 | 96 | 360 | 4.0 | 6.0 | 0.00 | 0.00 | 0.00 | 53 | 1009.7 |
| 20260903001316 | 96 | 360 | 2.0 | 6.0 | 0.00 | 0.00 | 0.00 | 52 | 1009.7 |
| 20260903000817 | 96 | 360 | 4.0 | 6.0 | 0.00 | 0.00 | 0.00 | 52 | 1009.7 |
| 20260903000318 | 96 | 360 | 5.0 | 9.0 | 0.00 | 0.00 | 0.00 | 52 | 1009.6 |
| 20260902235838 | 95 | 360 | 3.0 | 6.0 | 0.00 | 0.00 | 0.00 | 52 | 1009.6 |
| 20260902235316 | 96 | 360 | 1.0 | 3.0 | 0.00 | 0.00 | 0.00 | 54 | 1009.6 |
| 20260902234815 | 97 | 360 | 1.0 | 3.0 | 0.00 | 0.00 | 0.00 | 54 | 1009.5 |
| 20260902234316 | 97 | 360 | 1.0 | 3.0 | 0.00 | 0.00 | 0.00 | 50 | 1009.5 |
| 20260902233815 | 98 | 360 | 0.0 | 1.0 | 0.00 | 0.00 | 0.00 | 53 | 1009.6 |
| 20260902233315 | 99 | 360 | 0.0 | 1.0 | 0.00 | 0.00 | 0.00 | 52 | 1009.6 |
| 20260902232813 | 100 | 360 | 0.0 | 1.0 | 0.00 | 0.00 | 0.00 | 51 | 1009.7 |
| 20260902232333 | 100 | 360 | 0.0 | 1.0 | 0.00 | 0.00 | 0.00 | 49 | 1009.6 |
| 20260902231813 | 101 | 360 | 0.0 | 2.0 | 0.00 | 0.00 | 0.00 | 49 | 1009.5 |
| 20260902231331 | 101 | 360 | 0.0 | 4.0 | 0.00 | 0.00 | 0.00 | 49 | 1009.6 |
| 20260902230830 | 101 | 360 | 1.0 | 4.0 | 0.00 | 0.00 | 0.00 | 45 | 1009.5 |
| 20260902230329 | 101 | 360 | 1.0 | 4.0 | 0.00 | 0.00 | 0.00 | 47 | 1009.6 |
| 20260902225827 | 101 | 360 | 0.0 | 3.0 | 0.00 | 0.00 | 0.00 | 45 | 1009.5 |
| 20260902225325 | 100 | 360 | 1.0 | 3.0 | 0.00 | 0.00 | 0.00 | 44 | 1009.6 |
| 20260902224825 | 100 | 360 | 0.0 | 4.0 | 0.00 | 0.00 | 0.00 | 47 | 1009.5 |
| 20260902224324 | 100 | 360 | 1.0 | 4.0 | 0.00 | 0.00 | 0.00 | 45 | 1009.5 |
| 20260902223845 | 100 | 360 | 2.0 | 3.0 | 0.00 | 0.00 | 0.00 | 49 | 1009.6 |
| 20260902223323 | 101 | 360 | 0.0 | 5.0 | 0.00 | 0.00 | 0.00 | 43 | 1009.6 |
| 20260902222845 | 101 | 360 | 3.0 | 5.0 | 0.00 | 0.00 | 0.00 | 44 | 1009.6 |
| 20260902222345 | 102 | 360 | 1.0 | 5.0 | 0.00 | 0.00 | 0.00 | 48 | 1009.6 |
| 20260902221841 | 102 | 360 | 2.0 | 8.0 | 0.00 | 0.00 | 0.00 | 45 | 1009.6 |
| 20260902221320 | 101 | 360 | 4.0 | 9.0 | 0.00 | 0.00 | 0.00 | 48 | 1009.6 |
| 20260902220818 | 102 | 360 | 4.0 | 9.0 | 0.00 | 0.00 | 0.00 | 44 | 1009.6 |
| 20260902220339 | 103 | 360 | 3.0 | 9.0 | 0.00 | 0.00 | 0.00 | 46 | 1009.7 |
| 20260902215817 | 103 | 360 | 3.0 | 9.0 | 0.00 | 0.00 | 0.00 | 45 | 1009.7 |
| 20260902215335 | 103 | 360 | 3.0 | 9.0 | 0.00 | 0.00 | 0.00 | 43 | 1009.7 |
| 20260902214848 | 104 | 360 | 3.0 | 11.0 | 0.00 | 0.00 | 0.00 | 40 | 1009.7 |
| 20260902214328 | 105 | 360 | 4.0 | 11.0 | 0.00 | 0.00 | 0.00 | 41 | 1009.8 |
| 20260902213818 | 105 | 360 | 5.0 | 9.0 | 0.00 | 0.00 | 0.00 | 40 | 1009.8 |
| 20260902213317 | 105 | 360 | 3.0 | 10.0 | 0.00 | 0.00 | 0.00 | 45 | 1009.9 |
| 20260902212815 | 105 | 360 | 2.0 | 10.0 | 0.00 | 0.00 | 0.00 | 42 | 1010.0 |
| 20260902212315 | 104 | 360 | 4.0 | 10.0 | 0.00 | 0.00 | 0.00 | 42 | 1010.0 |
| 20260902211813 | 104 | 360 | 5.0 | 9.0 | 0.00 | 0.00 | 0.00 | 44 | 1010.1 |
| 20260902211354 | 104 | 360 | 5.0 | 9.0 | 0.00 | 0.00 | 0.00 | 42 | 1010.1 |
| 20260902210813 | 103 | 360 | 5.0 | 9.0 | 0.00 | 0.00 | 0.00 | 45 | 1010.3 |
| 20260902210331 | 103 | 360 | 3.0 | 9.0 | 0.00 | 0.00 | 0.00 | 47 | 1010.3 |
| 20260902205820 | 103 | 360 | 4.0 | 6.0 | 0.00 | 0.00 | 0.00 | 43 | 1010.3 |
| 20260902205318 | 103 | 360 | 0.0 | 5.0 | 0.00 | 0.00 | 0.00 | 46 | 1010.4 |
| 20260902204836 | 103 | 360 | 3.0 | 5.0 | 0.00 | 0.00 | 0.00 | 44 | 1010.5 |
| 20260902204313 | 102 | 360 | 1.0 | 5.0 | 0.00 | 0.00 | 0.00 | 45 | 1010.6 |
| 20260902203833 | 102 | 360 | 2.0 | 8.0 | 0.00 | 0.00 | 0.00 | 44 | 1010.7 |
| 20260902203323 | 102 | 360 | 3.0 | 8.0 | 0.00 | 0.00 | 0.00 | 46 | 1010.7 |
| 20260902202823 | 102 | 360 | 4.0 | 12.0 | 0.00 | 0.00 | 0.00 | 46 | 1010.8 |
| 20260902202322 | 103 | 360 | 4.0 | 12.0 | 0.00 | 0.00 | 0.00 | 48 | 1010.8 |
| 20260902201818 | 102 | 360 | 3.0 | 6.0 | 0.00 | 0.00 | 0.00 | 48 | 1010.9 |
| 20260902201319 | 101 | 360 | 1.0 | 6.0 | 0.00 | 0.00 | 0.00 | 48 | 1011.1 |
| 20260902200820 | 101 | 360 | 3.0 | 6.0 | 0.00 | 0.00 | 0.00 | 46 | 1011.1 |
| 20260902200318 | 103 | 360 | 3.0 | 8.0 | 0.00 | 0.00 | 0.00 | 43 | 1011.2 |
| 20260902195817 | 104 | 360 | 4.0 | 11.0 | 0.00 | 0.00 | 0.00 | 46 | 1011.3 |
| 20260902195315 | 103 | 360 | 4.0 | 11.0 | 0.00 | 0.00 | 0.00 | 46 | 1011.4 |
| 20260902194814 | 103 | 360 | 2.0 | 8.0 | 0.00 | 0.00 | 0.00 | 47 | 1011.6 |
| 20260902194312 | 103 | 360 | 4.0 | 8.0 | 0.00 | 0.00 | 0.00 | 47 | 1011.7 |
| 20260902193830 | 102 | 360 | 3.0 | 8.0 | 0.00 | 0.00 | 0.00 | 48 | 1011.7 |
| 20260902193332 | 102 | 360 | 2.0 | 4.0 | 0.00 | 0.00 | 0.00 | 48 | 1011.8 |
| 20260902192825 | 102 | 360 | 0.0 | 2.0 | 0.00 | 0.00 | 0.00 | 44 | 1011.9 |
| 20260902192323 | 102 | 360 | 1.0 | 6.0 | 0.00 | 0.00 | 0.00 | 45 | 1011.9 |
| 20260902191823 | 102 | 360 | 2.0 | 8.0 | 0.00 | 0.00 | 0.00 | 45 | 1012.0 |
| 20260902191322 | 102 | 360 | 3.0 | 8.0 | 0.00 | 0.00 | 0.00 | 46 | 1012.1 |
| 20260902190820 | 102 | 360 | 3.0 | 8.0 | 0.00 | 0.00 | 0.00 | 45 | 1012.2 |
| 20260902190338 | 102 | 360 | 4.0 | 8.0 | 0.00 | 0.00 | 0.00 | 48 | 1012.3 |
| 20260902185815 | 102 | 360 | 2.0 | 5.0 | 0.00 | 0.00 | 0.00 | 49 | 1012.4 |
| 20260902185314 | 101 | 360 | 2.0 | 10.0 | 0.00 | 0.00 | 0.00 | 50 | 1012.4 |
| 20260902184813 | 101 | 360 | 3.0 | 10.0 | 0.00 | 0.00 | 0.00 | 48 | 1012.6 |
| 20260902184334 | 101 | 360 | 4.0 | 8.0 | 0.00 | 0.00 | 0.00 | 47 | 1012.7 |
| 20260902183848 | 101 | 360 | 2.0 | 10.0 | 0.00 | 0.00 | 0.00 | 49 | 1012.7 |
| 20260902183327 | 100 | 360 | 4.0 | 12.0 | 0.00 | 0.00 | 0.00 | 48 | 1012.8 |
| 20260902182828 | 100 | 360 | 3.0 | 6.0 | 0.00 | 0.00 | 0.00 | 53 | 1012.9 |
| 20260902182329 | 99 | 360 | 2.0 | 6.0 | 0.00 | 0.00 | 0.00 | 48 | 1012.9 |
| 20260902181829 | 98 | 360 | 3.0 | 9.0 | 0.00 | 0.00 | 0.00 | 54 | 1013.1 |
| 20260902181327 | 99 | 360 | 2.0 | 11.0 | 0.00 | 0.00 | 0.00 | 52 | 1013.2 |
| 20260902180827 | 99 | 360 | 3.0 | 8.0 | 0.00 | 0.00 | 0.00 | 48 | 1013.3 |
| 20260902180347 | 99 | 360 | 3.0 | 8.0 | 0.00 | 0.00 | 0.00 | 53 | 1013.4 |
| 20260902175825 | 99 | 360 | 3.0 | 8.0 | 0.00 | 0.00 | 0.00 | 56 | 1013.5 |
| 20260902175325 | 100 | 360 | 4.0 | 9.0 | 0.00 | 0.00 | 0.00 | 54 | 1013.6 |
| 20260902174817 | 100 | 360 | 1.0 | 11.0 | 0.00 | 0.00 | 0.00 | 54 | 1013.7 |
| 20260902174316 | 100 | 360 | 3.0 | 6.0 | 0.00 | 0.00 | 0.00 | 53 | 1013.8 |
| 20260902173815 | 99 | 360 | 2.0 | 8.0 | 0.00 | 0.00 | 0.00 | 55 | 1013.8 |
| 20260902173334 | 99 | 360 | 4.0 | 9.0 | 0.00 | 0.00 | 0.00 | 54 | 1013.9 |
| 20260902172851 | 98 | 360 | 2.0 | 11.0 | 0.00 | 0.00 | 0.00 | 55 | 1014.1 |
| 20260902172350 | 98 | 360 | 3.0 | 11.0 | 0.00 | 0.00 | 0.00 | 57 | 1014.1 |
| 20260902171821 | 98 | 360 | 2.0 | 8.0 | 0.00 | 0.00 | 0.00 | 56 | 1014.2 |
| 20260902171341 | 97 | 360 | 4.0 | 8.0 | 0.00 | 0.00 | 0.00 | 55 | 1014.2 |
| 20260902170819 | 97 | 360 | 2.0 | 9.0 | 0.00 | 0.00 | 0.00 | 56 | 1014.4 |
| 20260902170318 | 97 | 360 | 3.0 | 11.0 | 0.00 | 0.00 | 0.00 | 58 | 1014.4 |
| 20260902165836 | 96 | 360 | 4.0 | 11.0 | 0.00 | 0.00 | 0.00 | 59 | 1014.5 |
| 20260902165315 | 96 | 360 | 3.0 | 8.0 | 0.00 | 0.00 | 0.00 | 60 | 1014.5 |
| 20260902164814 | 96 | 360 | 4.0 | 10.0 | 0.00 | 0.00 | 0.00 | 62 | 1014.5 |
| 20260902164334 | 96 | 360 | 4.0 | 10.0 | 0.00 | 0.00 | 0.00 | 60 | 1014.6 |
| 20260902163852 | 95 | 360 | 4.0 | 10.0 | 0.00 | 0.00 | 0.00 | 59 | 1014.6 |
| 20260902163330 | 95 | 360 | 5.0 | 10.0 | 0.00 | 0.00 | 0.00 | 64 | 1014.6 |
| 20260902162824 | 94 | 360 | 4.0 | 10.0 | 0.00 | 0.00 | 0.00 | 62 | 1014.7 |
| 20260902162323 | 94 | 360 | 4.0 | 11.0 | 0.00 | 0.00 | 0.00 | 62 | 1014.7 |
| 20260902161822 | 94 | 360 | 4.0 | 11.0 | 0.00 | 0.00 | 0.00 | 64 | 1014.7 |
| 20260902161316 | 93 | 360 | 4.0 | 11.0 | 0.00 | 0.00 | 0.00 | 68 | 1014.7 |
| 20260902160814 | 93 | 360 | 3.0 | 9.0 | 0.00 | 0.00 | 0.00 | 68 | 1014.8 |
| 20260902160314 | 92 | 360 | 3.0 | 8.0 | 0.00 | 0.00 | 0.00 | 67 | 1014.8 |
| 20260902155813 | 92 | 360 | 2.0 | 9.0 | 0.00 | 0.00 | 0.00 | 71 | 1014.8 |
| 20260902155331 | 91 | 360 | 3.0 | 11.0 | 0.00 | 0.00 | 0.00 | 71 | 1014.8 |
| 20260902154831 | 91 | 360 | 6.0 | 11.0 | 0.00 | 0.00 | 0.00 | 71 | 1014.9 |
| 20260902154331 | 91 | 360 | 6.0 | 11.0 | 0.00 | 0.00 | 0.00 | 70 | 1014.8 |
| 20260902153851 | 91 | 360 | 5.0 | 11.0 | 0.00 | 0.00 | 0.00 | 71 | 1014.9 |
| 20260902153331 | 90 | 360 | 3.0 | 6.0 | 0.00 | 0.00 | 0.00 | 73 | 1014.8 |
| 20260902152829 | 90 | 360 | 3.0 | 12.0 | 0.00 | 0.00 | 0.00 | 74 | 1014.8 |
| 20260902152326 | 89 | 360 | 3.0 | 12.0 | 0.00 | 0.00 | 0.00 | 75 | 1014.8 |
| 20260902151824 | 89 | 360 | 3.0 | 9.0 | 0.00 | 0.00 | 0.00 | 74 | 1014.8 |
| 20260902151324 | 88 | 360 | 4.0 | 12.0 | 0.00 | 0.00 | 0.00 | 78 | 1014.8 |
| 20260902150818 | 88 | 360 | 7.0 | 13.0 | 0.00 | 0.00 | 0.00 | 79 | 1014.8 |
| 20260902150317 | 88 | 360 | 4.0 | 13.0 | 0.00 | 0.00 | 0.00 | 79 | 1014.8 |
| 20260902145818 | 87 | 360 | 5.0 | 12.0 | 0.00 | 0.00 | 0.00 | 79 | 1014.8 |
| 20260902145316 | 87 | 360 | 4.0 | 12.0 | 0.00 | 0.00 | 0.00 | 81 | 1014.8 |
| 20260902144816 | 86 | 360 | 6.0 | 12.0 | 0.00 | 0.00 | 0.00 | 82 | 1014.8 |
| 20260902144314 | 86 | 360 | 4.0 | 12.0 | 0.00 | 0.00 | 0.00 | 85 | 1014.9 |
| 20260902143812 | 85 | 360 | 4.0 | 9.0 | 0.00 | 0.00 | 0.00 | 85 | 1014.9 |
| 20260902143332 | 84 | 360 | 3.0 | 10.0 | 0.00 | 0.00 | 0.00 | 86 | 1014.9 |
| 20260902142830 | 84 | 360 | 6.0 | 10.0 | 0.00 | 0.00 | 0.00 | 87 | 1015.0 |
| 20260902142328 | 83 | 360 | 4.0 | 9.0 | 0.00 | 0.00 | 0.00 | 89 | 1015.0 |
| 20260902141827 | 82 | 360 | 2.0 | 10.0 | 0.00 | 0.00 | 0.00 | 90 | 1015.1 |
| 20260902141326 | 82 | 360 | 4.0 | 10.0 | 0.00 | 0.00 | 0.00 | 91 | 1015.2 |
| 20260902140826 | 81 | 360 | 3.0 | 8.0 | 0.00 | 0.00 | 0.00 | 93 | 1015.1 |
| 20260902140327 | 80 | 360 | 4.0 | 8.0 | 0.00 | 0.00 | 0.00 | 94 | 1015.1 |
| 20260902135826 | 80 | 360 | 2.0 | 5.0 | 0.00 | 0.00 | 0.00 | 95 | 1015.1 |
| 20260902135324 | 79 | 360 | 2.0 | 5.0 | 0.00 | 0.00 | 0.00 | 96 | 1015.1 |
| 20260902134822 | 78 | 360 | 3.0 | 6.0 | 0.00 | 0.00 | 0.00 | 97 | 1015.0 |
| 20260902134343 | 78 | 360 | 3.0 | 6.0 | 0.00 | 0.00 | 0.00 | 97 | 1015.0 |
| 20260902133821 | 77 | 360 | 2.0 | 3.0 | 0.00 | 0.00 | 0.00 | 98 | 1015.0 |
| 20260902133320 | 76 | 360 | 1.0 | 2.0 | 0.00 | 0.00 | 0.00 | 98 | 1015.0 |
| 20260902132819 | 76 | 360 | 0.0 | 1.0 | 0.00 | 0.00 | 0.00 | 98 | 1014.9 |
| 20260902132320 | 76 | 360 | 0.0 | 1.0 | 0.00 | 0.00 | 0.00 | 97 | 1014.8 |
| 20260902131818 | 75 | 360 | 0.0 | 1.0 | 0.00 | 0.00 | 0.00 | 97 | 1014.7 |
| 20260902131319 | 75 | 360 | 0.0 | 0.0 | 0.00 | 0.00 | 0.00 | 97 | 1014.7 |
| 20260902130840 | 75 | 360 | 0.0 | 0.0 | 0.00 | 0.00 | 0.00 | 97 | 1014.6 |
| 20260902130316 | 75 | 360 | 0.0 | 0.0 | 0.00 | 0.00 | 0.00 | 97 | 1014.6 |
| 20260902125815 | 75 | 360 | 0.0 | 0.0 | 0.00 | 0.00 | 0.00 | 97 | 1014.5 |
| 20260902125314 | 75 | 360 | 0.0 | 1.0 | 0.00 | 0.00 | 0.00 | 96 | 1014.5 |
| 20260902124832 | 74 | 360 | 0.0 | 1.0 | 0.00 | 0.00 | 0.00 | 96 | 1014.5 |
| 20260902124314 | 74 | 360 | 0.0 | 1.0 | 0.00 | 0.00 | 0.00 | 96 | 1014.4 |
| 20260902123829 | 74 | 360 | 0.0 | 0.0 | 0.00 | 0.00 | 0.00 | 96 | 1014.4 |
| 20260902123321 | 74 | 360 | 0.0 | 0.0 | 0.00 | 0.00 | 0.00 | 96 | 1014.3 |
| 20260902122814 | 74 | 360 | 0.0 | 0.0 | 0.00 | 0.00 | 0.00 | 96 | 1014.3 |
| 20260902122334 | 74 | 360 | 0.0 | 0.0 | 0.00 | 0.00 | 0.00 | 96 | 1014.3 |
| 20260902121845 | 74 | 360 | 0.0 | 0.0 | 0.00 | 0.00 | 0.00 | 96 | 1014.2 |
| 20260902121326 | 74 | 360 | 0.0 | 0.0 | 0.00 | 0.00 | 0.00 | 96 | 1014.2 |
| 20260902120834 | 74 | 360 | 0.0 | 0.0 | 0.00 | 0.00 | 0.00 | 96 | 1014.2 |
| 20260902120353 | 74 | 360 | 0.0 | 0.0 | 0.00 | 0.00 | 0.00 | 96 | 1014.2 |
| 20260902115831 | 74 | 360 | 0.0 | 0.0 | 0.00 | 0.00 | 0.00 | 96 | 1014.2 |
| 20260902115330 | 74 | 360 | 0.0 | 0.0 | 0.00 | 0.00 | 0.00 | 96 | 1014.2 |
| 20260902114831 | 74 | 360 | 0.0 | 0.0 | 0.00 | 0.00 | 0.00 | 96 | 1014.2 |
| 20260902114330 | 74 | 360 | 0.0 | 0.0 | 0.00 | 0.00 | 0.00 | 96 | 1014.2 |
| 20260902113829 | 74 | 360 | 0.0 | 0.0 | 0.00 | 0.00 | 0.00 | 95 | 1014.2 |
| 20260902113349 | 74 | 360 | 0.0 | 0.0 | 0.00 | 0.00 | 0.00 | 95 | 1014.1 |
| 20260902112849 | 74 | 360 | 0.0 | 1.0 | 0.00 | 0.00 | 0.00 | 95 | 1014.0 |
| 20260902112330 | 74 | 360 | 0.0 | 1.0 | 0.00 | 0.00 | 0.00 | 95 | 1013.9 |
| 20260902111829 | 74 | 360 | 0.0 | 0.0 | 0.00 | 0.00 | 0.00 | 95 | 1014.0 |
| 20260902111328 | 74 | 360 | 0.0 | 0.0 | 0.00 | 0.00 | 0.00 | 95 | 1014.0 |
| 20260902110848 | 74 | 360 | 0.0 | 0.0 | 0.00 | 0.00 | 0.00 | 95 | 1014.0 |
| 20260902110327 | 74 | 360 | 0.0 | 0.0 | 0.00 | 0.00 | 0.00 | 95 | 1013.9 |
| 20260902105825 | 74 | 360 | 0.0 | 0.0 | 0.00 | 0.00 | 0.00 | 95 | 1013.9 |
| 20260902105345 | 74 | 360 | 0.0 | 0.0 | 0.00 | 0.00 | 0.00 | 95 | 1013.9 |
| 20260902104823 | 74 | 360 | 0.0 | 0.0 | 0.00 | 0.00 | 0.00 | 95 | 1013.9 |
| 20260902104322 | 74 | 360 | 0.0 | 0.0 | 0.00 | 0.00 | 0.00 | 95 | 1013.9 |
| 20260902103816 | 74 | 360 | 0.0 | 0.0 | 0.00 | 0.00 | 0.00 | 95 | 1013.9 |
| 20260902103315 | 74 | 360 | 0.0 | 0.0 | 0.00 | 0.00 | 0.00 | 95 | 1013.9 |
| 20260902102815 | 74 | 360 | 0.0 | 0.0 | 0.00 | 0.00 | 0.00 | 95 | 1013.8 |
| 20260902102334 | 75 | 360 | 0.0 | 0.0 | 0.00 | 0.00 | 0.00 | 95 | 1013.8 |
| 20260902101815 | 75 | 360 | 0.0 | 0.0 | 0.00 | 0.00 | 0.00 | 95 | 1013.7 |
| 20260902101313 | 75 | 360 | 0.0 | 0.0 | 0.00 | 0.00 | 0.00 | 95 | 1013.8 |
| 20260902100835 | 75 | 360 | 0.0 | 0.0 | 0.00 | 0.00 | 0.00 | 95 | 1013.8 |
| 20260902100312 | 75 | 360 | 0.0 | 0.0 | 0.00 | 0.00 | 0.00 | 94 | 1013.8 |
| 20260902095813 | 75 | 360 | 0.0 | 0.0 | 0.00 | 0.00 | 0.00 | 94 | 1013.8 |
| 20260902095313 | 75 | 360 | 0.0 | 0.0 | 0.00 | 0.00 | 0.00 | 94 | 1013.7 |
| 20260902094848 | 75 | 360 | 0.0 | 0.0 | 0.00 | 0.00 | 0.00 | 94 | 1013.7 |
| 20260902093814 | 75 | 360 | 0.0 | 0.0 | 0.00 | 0.00 | 0.00 | 94 | 1013.8 |
| 20260902093313 | 75 | 360 | 0.0 | 0.0 | 0.00 | 0.00 | 0.00 | 94 | 1013.8 |
| 20260902092832 | 75 | 360 | 0.0 | 0.0 | 0.00 | 0.00 | 0.00 | 94 | 1013.9 |
| 20260902092313 | 75 | 360 | 0.0 | 0.0 | 0.00 | 0.00 | 0.00 | 94 | 1014.0 |
| 20260902091814 | 75 | 360 | 0.0 | 0.0 | 0.00 | 0.00 | 0.00 | 94 | 1014.0 |
| 20260902091313 | 75 | 360 | 0.0 | 0.0 | 0.00 | 0.00 | 0.00 | 94 | 1014.0 |
| 20260902090853 | 75 | 360 | 0.0 | 0.0 | 0.00 | 0.00 | 0.00 | 94 | 1014.0 |
| 20260902090330 | 75 | 360 | 0.0 | 0.0 | 0.00 | 0.00 | 0.00 | 94 | 1014.1 |
| 20260902085830 | 75 | 360 | 0.0 | 0.0 | 0.00 | 0.00 | 0.00 | 94 | 1014.1 |
| 20260902085332 | 75 | 360 | 0.0 | 0.0 | 0.00 | 0.00 | 0.00 | 94 | 1014.1 |
| 20260902084813 | 76 | 360 | 0.0 | 1.0 | 0.00 | 0.00 | 0.00 | 93 | 1014.1 |
| 20260902084352 | 76 | 360 | 0.0 | 1.0 | 0.00 | 0.00 | 0.00 | 93 | 1014.0 |
| 20260902083832 | 76 | 360 | 0.0 | 0.0 | 0.00 | 0.00 | 0.00 | 93 | 1014.1 |
| 20260902083331 | 76 | 360 | 0.0 | 0.0 | 0.00 | 0.00 | 0.00 | 93 | 1014.0 |
| 20260902082830 | 76 | 360 | 0.0 | 0.0 | 0.00 | 0.00 | 0.00 | 93 | 1013.9 |
| 20260902082330 | 76 | 360 | 0.0 | 0.0 | 0.00 | 0.00 | 0.00 | 93 | 1013.9 |
| 20260902081849 | 76 | 360 | 0.0 | 0.0 | 0.00 | 0.00 | 0.00 | 93 | 1013.9 |
| 20260902081327 | 76 | 360 | 0.0 | 0.0 | 0.00 | 0.00 | 0.00 | 93 | 1013.9 |
| 20260902080827 | 76 | 360 | 0.0 | 0.0 | 0.00 | 0.00 | 0.00 | 93 | 1014.0 |
| 20260902080346 | 76 | 360 | 0.0 | 0.0 | 0.00 | 0.00 | 0.00 | 93 | 1014.0 |
| 20260902075824 | 76 | 360 | 0.0 | 0.0 | 0.00 | 0.00 | 0.00 | 93 | 1014.1 |
| 20260902075345 | 77 | 360 | 0.0 | 0.0 | 0.00 | 0.00 | 0.00 | 92 | 1014.0 |
| 20260902074823 | 77 | 360 | 0.0 | 0.0 | 0.00 | 0.00 | 0.00 | 92 | 1014.0 |
| 20260902074323 | 77 | 360 | 0.0 | 0.0 | 0.00 | 0.00 | 0.00 | 91 | 1014.0 |
| 20260902073820 | 77 | 360 | 0.0 | 0.0 | 0.00 | 0.00 | 0.00 | 91 | 1014.1 |
| 20260902073342 | 77 | 360 | 0.0 | 0.0 | 0.00 | 0.00 | 0.00 | 91 | 1014.0 |
| 20260902072823 | 77 | 360 | 0.0 | 0.0 | 0.00 | 0.00 | 0.00 | 91 | 1014.1 |
| 20260902072317 | 77 | 360 | 0.0 | 0.0 | 0.00 | 0.00 | 0.00 | 91 | 1014.2 |
| 20260902071817 | 78 | 360 | 0.0 | 0.0 | 0.00 | 0.00 | 0.00 | 91 | 1014.1 |
| 20260902071338 | 78 | 360 | 0.0 | 0.0 | 0.00 | 0.00 | 0.00 | 90 | 1014.1 |
| 20260902070816 | 78 | 360 | 0.0 | 0.0 | 0.00 | 0.00 | 0.00 | 90 | 1014.2 |
| 20260902070315 | 78 | 360 | 0.0 | 0.0 | 0.00 | 0.00 | 0.00 | 90 | 1014.2 |
| 20260902065835 | 78 | 360 | 0.0 | 0.0 | 0.00 | 0.00 | 0.00 | 89 | 1014.2 |
| 20260902065334 | 78 | 360 | 0.0 | 0.0 | 0.00 | 0.00 | 0.00 | 89 | 1014.2 |
| 20260902064853 | 78 | 360 | 0.0 | 1.0 | 0.00 | 0.00 | 0.00 | 89 | 1014.2 |
| 20260902064331 | 79 | 360 | 0.0 | 1.0 | 0.00 | 0.00 | 0.00 | 89 | 1014.1 |
| 20260902063830 | 79 | 360 | 0.0 | 0.0 | 0.00 | 0.00 | 0.00 | 88 | 1014.1 |
| 20260902063331 | 79 | 360 | 0.0 | 0.0 | 0.00 | 0.00 | 0.00 | 88 | 1014.2 |
| 20260902062829 | 79 | 360 | 0.0 | 0.0 | 0.00 | 0.00 | 0.00 | 87 | 1014.1 |
| 20260902062328 | 79 | 360 | 0.0 | 1.0 | 0.00 | 0.00 | 0.00 | 87 | 1014.1 |
| 20260902061827 | 79 | 360 | 0.0 | 2.0 | 0.00 | 0.00 | 0.00 | 87 | 1014.0 |
| 20260902061328 | 80 | 360 | 0.0 | 2.0 | 0.00 | 0.00 | 0.00 | 86 | 1014.0 |
| 20260902060848 | 80 | 360 | 0.0 | 2.0 | 0.00 | 0.00 | 0.00 | 86 | 1014.0 |
| 20260902060326 | 80 | 360 | 0.0 | 1.0 | 0.00 | 0.00 | 0.00 | 85 | 1014.0 |
| 20260902055819 | 80 | 360 | 0.0 | 1.0 | 0.00 | 0.00 | 0.00 | 85 | 1014.0 |
| 20260902055318 | 81 | 360 | 0.0 | 1.0 | 0.00 | 0.00 | 0.00 | 85 | 1014.0 |
| 20260902054817 | 81 | 360 | 0.0 | 1.0 | 0.00 | 0.00 | 0.00 | 84 | 1014.0 |
| 20260902054315 | 81 | 360 | 0.0 | 0.0 | 0.00 | 0.00 | 0.00 | 84 | 1014.0 |
| 20260902053833 | 81 | 360 | 0.0 | 2.0 | 0.00 | 0.00 | 0.00 | 84 | 1014.0 |
| 20260902053330 | 81 | 360 | 0.0 | 3.0 | 0.00 | 0.00 | 0.00 | 83 | 1014.0 |
| 20260902052829 | 81 | 360 | 1.0 | 3.0 | 0.00 | 0.00 | 0.00 | 83 | 1013.9 |
| 20260902052330 | 82 | 360 | 1.0 | 3.0 | 0.00 | 0.00 | 0.00 | 83 | 1013.9 |
| 20260902051830 | 82 | 360 | 0.0 | 2.0 | 0.00 | 0.00 | 0.00 | 82 | 1013.9 |
| 20260902051330 | 82 | 360 | 0.0 | 4.0 | 0.00 | 0.00 | 0.00 | 82 | 1013.9 |
| 20260902050828 | 82 | 360 | 2.0 | 5.0 | 0.00 | 0.00 | 0.00 | 82 | 1013.9 |
| 20260902050346 | 82 | 360 | 1.0 | 6.0 | 0.00 | 0.00 | 0.00 | 81 | 1014.0 |
| 20260902045826 | 83 | 360 | 3.0 | 6.0 | 0.00 | 0.00 | 0.00 | 81 | 1014.0 |
| 20260902045326 | 83 | 360 | 1.0 | 5.0 | 0.00 | 0.00 | 0.00 | 81 | 1014.0 |
| 20260902044826 | 83 | 360 | 2.0 | 6.0 | 0.00 | 0.00 | 0.00 | 81 | 1014.0 |
| 20260902044324 | 83 | 360 | 2.0 | 6.0 | 0.00 | 0.00 | 0.00 | 80 | 1014.0 |
| 20260902043826 | 83 | 360 | 2.0 | 4.0 | 0.00 | 0.00 | 0.00 | 80 | 1013.9 |
| 20260902043324 | 83 | 360 | 2.0 | 4.0 | 0.00 | 0.00 | 0.00 | 79 | 1013.9 |
| 20260902042843 | 84 | 360 | 2.0 | 6.0 | 0.00 | 0.00 | 0.00 | 79 | 1013.9 |
| 20260902042343 | 84 | 360 | 3.0 | 6.0 | 0.00 | 0.00 | 0.00 | 78 | 1013.9 |
| 20260902041838 | 84 | 360 | 3.0 | 6.0 | 0.00 | 0.00 | 0.00 | 78 | 1014.0 |
| 20260902041315 | 84 | 360 | 3.0 | 6.0 | 0.00 | 0.00 | 0.00 | 78 | 1013.9 |
| 20260902040834 | 84 | 360 | 3.0 | 6.0 | 0.00 | 0.00 | 0.00 | 78 | 1014.0 |
| 20260902040314 | 84 | 360 | 3.0 | 6.0 | 0.00 | 0.00 | 0.00 | 77 | 1014.0 |
| 20260902035814 | 85 | 360 | 3.0 | 9.0 | 0.00 | 0.00 | 0.00 | 77 | 1014.0 |
| 20260902035314 | 85 | 360 | 3.0 | 9.0 | 0.00 | 0.00 | 0.00 | 76 | 1013.9 |
| 20260902034831 | 85 | 360 | 4.0 | 9.0 | 0.00 | 0.00 | 0.00 | 76 | 1013.8 |
| 20260902034331 | 85 | 360 | 4.0 | 9.0 | 0.00 | 0.00 | 0.00 | 75 | 1013.8 |
| 20260902033831 | 86 | 360 | 4.0 | 11.0 | 0.00 | 0.00 | 0.00 | 75 | 1013.7 |
| 20260902033330 | 86 | 360 | 4.0 | 12.0 | 0.00 | 0.00 | 0.00 | 74 | 1013.7 |
| 20260902032830 | 86 | 360 | 4.0 | 11.0 | 0.00 | 0.00 | 0.00 | 74 | 1013.7 |
| 20260902032330 | 86 | 360 | 5.0 | 11.0 | 0.00 | 0.00 | 0.00 | 74 | 1013.6 |
| 20260902031850 | 86 | 360 | 5.0 | 11.0 | 0.00 | 0.00 | 0.00 | 73 | 1013.6 |
| 20260902031348 | 86 | 360 | 4.0 | 9.0 | 0.00 | 0.00 | 0.00 | 73 | 1013.5 |
| 20260902030825 | 86 | 360 | 4.0 | 8.0 | 0.00 | 0.00 | 0.00 | 73 | 1013.4 |
| 20260902030345 | 85 | 360 | 3.0 | 10.0 | 0.00 | 0.00 | 0.00 | 74 | 1013.4 |
| 20260902025843 | 85 | 360 | 3.0 | 6.0 | 0.00 | 0.00 | 0.00 | 75 | 1013.2 |
| 20260902025342 | 84 | 360 | 3.0 | 6.0 | 0.00 | 0.00 | 0.00 | 76 | 1013.2 |
| 20260902024821 | 84 | 360 | 2.0 | 4.0 | 0.00 | 0.00 | 0.00 | 77 | 1013.0 |
| 20260902024320 | 84 | 360 | 1.0 | 4.0 | 0.00 | 0.00 | 0.00 | 77 | 1012.9 |
| 20260902023821 | 84 | 360 | 1.0 | 3.0 | 0.00 | 0.00 | 0.00 | 77 | 1012.8 |
| 20260902023320 | 84 | 360 | 1.0 | 3.0 | 0.00 | 0.00 | 0.00 | 76 | 1012.6 |
| 20260902022819 | 84 | 360 | 1.0 | 3.0 | 0.00 | 0.00 | 0.00 | 76 | 1012.4 |
| 20260902022320 | 84 | 360 | 1.0 | 3.0 | 0.00 | 0.00 | 0.00 | 76 | 1012.3 |
| 20260902021821 | 84 | 360 | 1.0 | 2.0 | 0.00 | 0.00 | 0.00 | 76 | 1012.2 |
| 20260902021340 | 84 | 360 | 0.0 | 2.0 | 0.00 | 0.00 | 0.00 | 76 | 1012.1 |
| 20260902020819 | 85 | 360 | 0.0 | 1.0 | 0.00 | 0.00 | 0.00 | 75 | 1012.1 |
| 20260902020320 | 85 | 360 | 0.0 | 1.0 | 0.00 | 0.00 | 0.00 | 74 | 1012.1 |
| 20260902015820 | 85 | 360 | 0.0 | 1.0 | 0.00 | 0.00 | 0.00 | 74 | 1012.1 |
| 20260902015319 | 85 | 360 | 0.0 | 3.0 | 0.00 | 0.00 | 0.00 | 74 | 1011.9 |
| 20260902014820 | 85 | 360 | 1.0 | 2.0 | 0.00 | 0.00 | 0.00 | 74 | 1012.0 |
| 20260902014322 | 86 | 360 | 0.0 | 2.0 | 0.00 | 0.00 | 0.00 | 73 | 1011.9 |
| 20260902013823 | 86 | 360 | 0.0 | 2.0 | 0.00 | 0.00 | 0.00 | 72 | 1011.9 |
| 20260902013323 | 86 | 360 | 1.0 | 4.0 | 0.00 | 0.00 | 0.00 | 71 | 1011.8 |
| 20260902012842 | 87 | 360 | 0.0 | 4.0 | 0.00 | 0.00 | 0.00 | 71 | 1011.9 |
| 20260902012319 | 87 | 360 | 0.0 | 3.0 | 0.00 | 0.00 | 0.00 | 70 | 1011.8 |
| 20260902011820 | 87 | 360 | 0.0 | 1.0 | 0.00 | 0.00 | 0.00 | 70 | 1011.8 |
| 20260902011319 | 88 | 360 | 0.0 | 2.0 | 0.00 | 0.00 | 0.00 | 69 | 1011.8 |
| 20260902010819 | 88 | 360 | 0.0 | 3.0 | 0.00 | 0.00 | 0.00 | 68 | 1011.7 |
| 20260902010321 | 88 | 360 | 1.0 | 2.0 | 0.00 | 0.00 | 0.00 | 67 | 1011.8 |
| 20260902005821 | 89 | 360 | 1.0 | 2.0 | 0.00 | 0.00 | 0.00 | 66 | 1011.7 |